Estación de San Javier
Ultimos registro cada 15 minutos 77
| N° | Estación | Fecha / Hora | Temperatura | Humedad | Lluvia | Velocidad | Dirección | Radiación | Presion |
| 77 | San Javier | 02-05-2026 19:00 | 10,6 | 85 | 0 | 0 | 321 | 0 | 1017,7 |
| 76 | San Javier | 02-05-2026 18:45 | 11,2 | 85 | 0 | 0,4 | 316 | 0 | 1017,6 |
| 75 | San Javier | 02-05-2026 18:30 | 12,7 | 78 | 0 | 0 | 319 | 0 | 1017 |
| 74 | San Javier | 02-05-2026 18:15 | 14,2 | 74 | 0 | 0 | 319 | 0 | 1016,9 |
| 73 | San Javier | 02-05-2026 18:00 | 15,7 | 69 | 0 | 0 | 319 | 0 | 1016,7 |
| 72 | San Javier | 02-05-2026 17:45 | 16,9 | 66 | 0 | 0 | 319 | 9 | 1016,5 |
| 71 | San Javier | 02-05-2026 17:30 | 17,4 | 66 | 0 | 0 | 319 | 21 | 1015,9 |
| 70 | San Javier | 02-05-2026 17:15 | 17,8 | 61 | 0 | 0 | 319 | 44 | 1016,3 |
| 69 | San Javier | 02-05-2026 17:00 | 18 | 58 | 0 | 0 | 304 | 102 | 1016,3 |
| 68 | San Javier | 02-05-2026 16:45 | 18,3 | 56 | 0 | 0 | 328 | 155 | 1016,4 |
| 67 | San Javier | 02-05-2026 16:30 | 18,2 | 56 | 0 | 0,4 | 225 | 200 | 1016,6 |
| 66 | San Javier | 02-05-2026 16:15 | 18,2 | 57 | 0 | 0,4 | 360 | 250 | 1016,6 |
| 65 | San Javier | 02-05-2026 16:00 | 18,1 | 58 | 0 | 0,4 | 261 | 290 | 1016,6 |
| 64 | San Javier | 02-05-2026 15:45 | 18,1 | 58 | 0 | 0,4 | 13 | 330 | 1016,6 |
| 63 | San Javier | 02-05-2026 15:30 | 17,9 | 57 | 0 | 0,4 | 14 | 364 | 1016,7 |
| 62 | San Javier | 02-05-2026 15:15 | 17,6 | 59 | 0 | 0,4 | 269 | 401 | 1016,8 |
| 61 | San Javier | 02-05-2026 15:00 | 17,3 | 56 | 0 | 0 | 342 | 431 | 1016,9 |
| 60 | San Javier | 02-05-2026 14:45 | 17,1 | 60 | 0 | 0 | 331 | 457 | 1016,9 |
| 59 | San Javier | 02-05-2026 14:30 | 16,8 | 58 | 0 | 1,3 | 9 | 485 | 1016,8 |
| 58 | San Javier | 02-05-2026 14:15 | 16,3 | 61 | 0 | 0,9 | 34 | 508 | 1017,1 |
| 57 | San Javier | 02-05-2026 14:00 | 15,9 | 64 | 0 | 0,4 | 319 | 527 | 1017,2 |
| 56 | San Javier | 02-05-2026 13:45 | 15,7 | 63 | 0 | 0,9 | 304 | 547 | 1017,1 |
| 55 | San Javier | 02-05-2026 13:30 | 14,9 | 62 | 0 | 0,9 | 15 | 561 | 1017,3 |
| 54 | San Javier | 02-05-2026 13:15 | 14,6 | 61 | 0 | 0 | 88 | 568 | 1017,7 |
| 53 | San Javier | 02-05-2026 13:00 | 14,1 | 63 | 0 | 0,9 | 312 | 577 | 1017,8 |
| 52 | San Javier | 02-05-2026 12:45 | 13,6 | 64 | 0 | 0,4 | 100 | 578 | 1017,9 |
| 51 | San Javier | 02-05-2026 12:30 | 12,8 | 67 | 0 | 0,9 | 40 | 575 | 1018,4 |
| 50 | San Javier | 02-05-2026 12:15 | 12,4 | 67 | 0 | 0,9 | 322 | 575 | 1018,8 |
| 49 | San Javier | 02-05-2026 12:00 | 11,7 | 69 | 0 | 0,4 | 174 | 566 | 1019,1 |
| 48 | San Javier | 02-05-2026 11:45 | 11,1 | 72 | 0 | 0 | 5 | 557 | 1019 |
| 47 | San Javier | 02-05-2026 11:30 | 10,6 | 72 | 0 | 0,4 | 355 | 541 | 1019,4 |
| 46 | San Javier | 02-05-2026 11:15 | 10,1 | 76 | 0 | 0,4 | 26 | 526 | 1019,6 |
| 45 | San Javier | 02-05-2026 11:00 | 9,6 | 77 | 0 | 0,9 | 324 | 503 | 1019,8 |
| 44 | San Javier | 02-05-2026 10:45 | 9,2 | 77 | 0 | 0,4 | 67 | 478 | 1019,8 |
| 43 | San Javier | 02-05-2026 10:30 | 8,7 | 79 | 0 | 1,3 | 17 | 452 | 1019,9 |
| 42 | San Javier | 02-05-2026 10:15 | 8,3 | 80 | 0 | 0,9 | 5 | 420 | 1020,1 |
| 41 | San Javier | 02-05-2026 10:00 | 7,9 | 81 | 0 | 1,3 | 9 | 387 | 1020,4 |
| 40 | San Javier | 02-05-2026 09:45 | 7,4 | 83 | 0 | 0,4 | 21 | 355 | 1020,5 |
| 39 | San Javier | 02-05-2026 09:30 | 6,8 | 86 | 0 | 1,3 | 5 | 302 | 1020,6 |
| 38 | San Javier | 02-05-2026 09:15 | 6,3 | 88 | 0 | 1,3 | 294 | 264 | 1020,6 |
| 37 | San Javier | 02-05-2026 09:00 | 5,6 | 91 | 0 | 0,4 | 360 | 225 | 1020,5 |
| 36 | San Javier | 02-05-2026 08:45 | 4,9 | 92 | 0 | 0,4 | 355 | 186 | 1020,7 |
| 35 | San Javier | 02-05-2026 08:30 | 4,3 | 92 | 0 | 0 | 5 | 141 | 1020,6 |
| 34 | San Javier | 02-05-2026 08:15 | 4,1 | 92 | 0 | 0,9 | 351 | 95 | 1020,3 |
| 33 | San Javier | 02-05-2026 08:00 | 3,9 | 93 | 0 | 0 | 344 | 58 | 1020,5 |
| 32 | San Javier | 02-05-2026 07:45 | 3,8 | 92 | 0 | 0 | 341 | 14 | 1020,4 |
| 31 | San Javier | 02-05-2026 07:30 | 3,8 | 92 | 0 | 0,4 | 350 | 5 | 1020,3 |
| 30 | San Javier | 02-05-2026 07:15 | 3,9 | 93 | 0 | 0,4 | 345 | 0 | 1020,4 |
| 29 | San Javier | 02-05-2026 07:00 | 3,9 | 92 | 0 | 0,4 | 360 | 0 | 1020,4 |
| 28 | San Javier | 02-05-2026 06:45 | 4,1 | 92 | 0 | 0 | 34 | 0 | 1020,4 |
| 27 | San Javier | 02-05-2026 06:30 | 4,2 | 92 | 0 | 0 | 5 | 0 | 1020,3 |
| 26 | San Javier | 02-05-2026 06:15 | 4,4 | 92 | 0 | 0 | 15 | 0 | 1020,4 |
| 25 | San Javier | 02-05-2026 06:00 | 4,5 | 92 | 0 | 0 | 57 | 0 | 1020,3 |
| 24 | San Javier | 02-05-2026 05:45 | 4,6 | 91 | 0 | 0 | 32 | 0 | 1020,2 |
| 23 | San Javier | 02-05-2026 05:30 | 4,9 | 91 | 0 | 0 | 25 | 0 | 1020,1 |
| 22 | San Javier | 02-05-2026 05:15 | 5,1 | 91 | 0 | 0 | 10 | 0 | 1020,2 |
| 21 | San Javier | 02-05-2026 05:00 | 5,3 | 90 | 0 | 0 | 5 | 0 | 1020,5 |
| 20 | San Javier | 02-05-2026 04:45 | 5,5 | 90 | 0 | 0,4 | 19 | 0 | 1020,5 |
| 19 | San Javier | 02-05-2026 04:30 | 5,7 | 90 | 0 | 0 | 10 | 0 | 1020,5 |
| 18 | San Javier | 02-05-2026 04:15 | 5,8 | 90 | 0 | 0 | 11 | 0 | 1020,7 |
| 17 | San Javier | 02-05-2026 04:00 | 6 | 89 | 0 | 0,4 | 5 | 0 | 1021 |
| 16 | San Javier | 02-05-2026 03:45 | 6,2 | 89 | 0 | 0,4 | 15 | 0 | 1021,1 |
| 15 | San Javier | 02-05-2026 03:30 | 6,4 | 88 | 0 | 0,4 | 5 | 0 | 1021,3 |
| 14 | San Javier | 02-05-2026 03:15 | 6,6 | 88 | 0 | 0,9 | 44 | 0 | 1021,4 |
| 13 | San Javier | 02-05-2026 03:00 | 6,6 | 88 | 0 | 0,4 | 5 | 0 | 1021,6 |
| 12 | San Javier | 02-05-2026 02:45 | 6,7 | 89 | 0 | 0 | 19 | 0 | 1021,6 |
| 11 | San Javier | 02-05-2026 02:30 | 6,7 | 89 | 0 | 0,4 | 324 | 0 | 1021,7 |
| 10 | San Javier | 02-05-2026 02:15 | 6,6 | 90 | 0 | 0 | 11 | 0 | 1022 |
| 9 | San Javier | 02-05-2026 02:00 | 6,5 | 92 | 0 | 0,4 | 50 | 0 | 1022 |
| 8 | San Javier | 02-05-2026 01:45 | 6,3 | 91 | 0 | 0 | 40 | 0 | 1022 |
| 7 | San Javier | 02-05-2026 01:30 | 6,4 | 91 | 0 | 0 | 31 | 0 | 1022 |
| 6 | San Javier | 02-05-2026 01:15 | 6,7 | 91 | 0 | 0 | 31 | 0 | 1022,1 |
| 5 | San Javier | 02-05-2026 01:00 | 7,1 | 91 | 0 | 0 | 31 | 0 | 1022,4 |
| 4 | San Javier | 02-05-2026 00:45 | 7,1 | 91 | 0 | 0,4 | 41 | 0 | 1022,6 |
| 3 | San Javier | 02-05-2026 00:30 | 7,1 | 91 | 0 | 0 | 30 | 0 | 1022,7 |
| 2 | San Javier | 02-05-2026 00:15 | 7,4 | 90 | 0 | 0 | 10 | 0 | 1022,9 |
| 1 | San Javier | 02-05-2026 00:00 | 7,7 | 90 | 0 | 0 | 53 | 0 | 1023,2 |